nws-alerts: Checking more than four warning/county codes can delay the loading of your pages. You should use a cron job to get the data.
EllijayWeather Station Historical Data
Daily Summary for March 22, 2019 Units:  English    Metric   Both
Daily Weekly Monthly Yearly Custom
  High: Low: Average:
Temperature: 61.5 °F 35.8 °F 48.2 °F
Dew Point: 34.0 °F 27.7 °F 30.2 °F
Humidity: 76% 29% 52%
Wind Speed: 11.0mph 0.0mph 0.9mph
Wind Gust: 15.0mph - -
Wind- - WSW
Pressure: 30.13 in 30.03 in -
Precipitation: 0.00 in    
Historical Graphs
 
 
Tabular Data for March 22, 2019
Time Temperature Dew Point Pressure Wind Wind Speed Wind Gust Humidity Rainfall Rate (Hourly) solar
00:04 44.1 °F 30.2 °F 30.04 in Calm   8.0 mph 58% 0.00 in meteobridge W/m2
00:09 43.9 °F 30.0 °F 30.04 in ENE 2.0 mph 4.0 mph 58% 0.00 in meteobridge W/m2
00:14 43.5 °F 29.7 °F 30.04 in Calm   4.0 mph 58% 0.00 in meteobridge W/m2
00:19 43.5 °F 29.3 °F 30.05 in Calm     57% 0.00 in meteobridge W/m2
00:24 43.3 °F 29.1 °F 30.06 in WNW 4.9 mph 5.0 mph 57% 0.00 in meteobridge W/m2
00:29 43.2 °F 28.9 °F 30.06 in Calm   1.0 mph 57% 0.00 in meteobridge W/m2
00:34 43.0 °F 28.8 °F 30.06 in Calm   10.0 mph 57% 0.00 in meteobridge W/m2
00:39 42.8 °F 29.1 °F 30.06 in WNW 2.0 mph 12.0 mph 58% 0.00 in meteobridge W/m2
00:44 42.6 °F 28.0 °F 30.05 in Calm   6.0 mph 56% 0.00 in meteobridge W/m2
00:49 42.4 °F 28.2 °F 30.04 in Calm   3.0 mph 57% 0.00 in meteobridge W/m2
00:54 42.3 °F 28.0 °F 30.05 in Calm   3.0 mph 57% 0.00 in meteobridge W/m2
00:59 42.1 °F 28.8 °F 30.05 in Calm   2.0 mph 59% 0.00 in meteobridge W/m2
01:04 41.9 °F 28.6 °F 30.05 in NW 2.0 mph 2.0 mph 59% 0.00 in meteobridge W/m2
01:09 41.7 °F 28.4 °F 30.05 in Calm   4.0 mph 59% 0.00 in meteobridge W/m2
01:14 41.5 °F 28.2 °F 30.05 in Calm   8.0 mph 59% 0.00 in meteobridge W/m2
01:19 41.5 °F 28.2 °F 30.05 in North 0.9 mph 7.0 mph 59% 0.00 in meteobridge W/m2
01:24 41.4 °F 28.0 °F 30.05 in Calm   5.0 mph 59% 0.00 in meteobridge W/m2
01:29 41.4 °F 28.0 °F 30.05 in Calm   2.0 mph 59% 0.00 in meteobridge W/m2
01:34 41.4 °F 28.6 °F 30.04 in Calm   11.0 mph 60% 0.00 in meteobridge W/m2
01:39 41.4 °F 28.6 °F 30.04 in West 4.0 mph 5.0 mph 60% 0.00 in meteobridge W/m2
01:44 41.4 °F 28.6 °F 30.05 in NNW 4.0 mph 14.0 mph 60% 0.00 in meteobridge W/m2
01:49 41.4 °F 28.6 °F 30.05 in NW 0.9 mph 1.0 mph 60% 0.00 in meteobridge W/m2
01:54 41.4 °F 28.6 °F 30.05 in North 4.9 mph 5.0 mph 60% 0.00 in meteobridge W/m2
01:59 41.2 °F 28.4 °F 30.05 in Calm   11.0 mph 60% 0.00 in meteobridge W/m2
02:04 41.2 °F 28.4 °F 30.05 in WNW 2.9 mph 3.0 mph 60% 0.00 in meteobridge W/m2
02:09 41.0 °F 28.2 °F 30.05 in Calm   15.0 mph 60% 0.00 in meteobridge W/m2
02:14 40.8 °F 28.8 °F 30.05 in NW 2.9 mph 3.0 mph 62% 0.00 in meteobridge W/m2
02:19 40.8 °F 28.4 °F 30.05 in Calm   10.0 mph 61% 0.00 in meteobridge W/m2
02:24 40.6 °F 28.2 °F 30.06 in Calm   12.0 mph 61% 0.00 in meteobridge W/m2
02:29 40.6 °F 28.6 °F 30.06 in West 4.9 mph 5.0 mph 62% 0.00 in meteobridge W/m2
02:34 40.5 °F 28.0 °F 30.06 in Calm   11.0 mph 61% 0.00 in meteobridge W/m2
02:39 40.5 °F 28.0 °F 30.06 in Calm   6.0 mph 61% 0.00 in meteobridge W/m2
02:44 40.5 °F 28.0 °F 30.05 in North 2.0 mph 4.0 mph 61% 0.00 in meteobridge W/m2
02:49 40.5 °F 28.4 °F 30.05 in NW 4.9 mph 7.0 mph 62% 0.00 in meteobridge W/m2
02:54 40.3 °F 27.9 °F 30.05 in NNE 0.9 mph 6.0 mph 61% 0.00 in meteobridge W/m2
02:59 40.3 °F 27.9 °F 30.05 in NW 6.0 mph 11.0 mph 61% 0.00 in meteobridge W/m2
03:04 40.5 °F 28.0 °F 30.05 in NNW 2.0 mph 4.0 mph 61% 0.00 in meteobridge W/m2
03:09 40.5 °F 28.0 °F 30.04 in Calm   7.0 mph 61% 0.00 in meteobridge W/m2
03:14 40.5 °F 27.7 °F 30.05 in Calm   3.0 mph 60% 0.00 in meteobridge W/m2
03:19 40.5 °F 27.7 °F 30.05 in Calm   9.0 mph 60% 0.00 in meteobridge W/m2
03:24 40.5 °F 27.7 °F 30.05 in Calm   9.0 mph 60% 0.00 in meteobridge W/m2
03:29 40.6 °F 27.9 °F 30.05 in Calm   1.0 mph 60% 0.00 in meteobridge W/m2
03:34 40.6 °F 27.9 °F 30.05 in NW 2.0 mph 4.0 mph 60% 0.00 in meteobridge W/m2
03:39 40.5 °F 28.0 °F 30.05 in Calm     61% 0.00 in meteobridge W/m2
03:44 40.5 °F 28.0 °F 30.05 in Calm   2.0 mph 61% 0.00 in meteobridge W/m2
03:49 40.3 °F 27.9 °F 30.05 in Calm   6.0 mph 61% 0.00 in meteobridge W/m2
03:54 40.3 °F 28.2 °F 30.05 in Calm     62% 0.00 in meteobridge W/m2
03:59 39.7 °F 28.2 °F 30.05 in Calm     63% 0.00 in meteobridge W/m2
04:04 39.7 °F 28.2 °F 30.04 in Calm   5.0 mph 63% 0.00 in meteobridge W/m2
04:09 39.6 °F 28.4 °F 30.04 in Calm     64% 0.00 in meteobridge W/m2
04:14 39.4 °F 28.2 °F 30.04 in Calm     64% 0.00 in meteobridge W/m2
04:19 39.0 °F 28.2 °F 30.04 in Calm     65% 0.00 in meteobridge W/m2
04:24 38.8 °F 28.0 °F 30.04 in Calm   1.0 mph 65% 0.00 in meteobridge W/m2
04:29 38.7 °F 28.6 °F 30.03 in Calm     67% 0.00 in meteobridge W/m2
04:34 38.5 °F 28.4 °F 30.03 in Calm     67% 0.00 in meteobridge W/m2
04:39 38.1 °F 28.2 °F 30.03 in Calm   1.0 mph 67% 0.00 in meteobridge W/m2
04:44 37.9 °F 28.4 °F 30.03 in Calm     68% 0.00 in meteobridge W/m2
04:49 37.8 °F 28.6 °F 30.03 in Calm     69% 0.00 in meteobridge W/m2
04:54 37.6 °F 28.4 °F 30.03 in Calm   1.0 mph 69% 0.00 in meteobridge W/m2
04:59 37.4 °F 28.6 °F 30.03 in Calm     70% 0.00 in meteobridge W/m2
05:04 37.2 °F 28.4 °F 30.03 in Calm     70% 0.00 in meteobridge W/m2
05:09 37.0 °F 28.6 °F 30.04 in Calm     71% 0.00 in meteobridge W/m2
05:14 36.9 °F 28.4 °F 30.04 in Calm     71% 0.00 in meteobridge W/m2
05:19 36.7 °F 28.6 °F 30.04 in Calm     72% 0.00 in meteobridge W/m2
05:24 36.5 °F 28.4 °F 30.04 in Calm     72% 0.00 in meteobridge W/m2
05:29 36.3 °F 28.6 °F 30.04 in Calm     73% 0.00 in meteobridge W/m2
05:34 36.1 °F 28.4 °F 30.04 in Calm     73% 0.00 in meteobridge W/m2
05:39 36.0 °F 28.2 °F 30.04 in Calm   2.0 mph 73% 0.00 in meteobridge W/m2
05:44 36.0 °F 28.4 °F 30.04 in Calm     74% 0.00 in meteobridge W/m2
05:49 35.8 °F 28.0 °F 30.04 in Calm     73% 0.00 in meteobridge W/m2
05:54 36.0 °F 28.4 °F 30.04 in Calm     74% 0.00 in meteobridge W/m2
05:59 36.0 °F 28.4 °F 30.05 in Calm     74% 0.00 in meteobridge W/m2
06:04 36.0 °F 28.4 °F 30.05 in NNW 0.9 mph 3.0 mph 74% 0.00 in meteobridge W/m2
06:09 36.0 °F 28.4 °F 30.05 in Calm     74% 0.00 in meteobridge W/m2
06:14 36.0 °F 28.4 °F 30.05 in Calm     74% 0.00 in meteobridge W/m2
06:19 36.0 °F 28.4 °F 30.04 in Calm   1.0 mph 74% 0.00 in meteobridge W/m2
06:24 36.1 °F 28.6 °F 30.04 in Calm     74% 0.00 in meteobridge W/m2
06:29 36.1 °F 28.6 °F 30.04 in Calm   4.0 mph 74% 0.00 in meteobridge W/m2
06:34 36.3 °F 28.8 °F 30.05 in Calm     74% 0.00 in meteobridge W/m2
06:39 36.3 °F 28.6 °F 30.05 in Calm     73% 0.00 in meteobridge W/m2
06:44 36.3 °F 28.8 °F 30.05 in Calm     74% 0.00 in meteobridge W/m2
06:49 36.3 °F 28.8 °F 30.05 in Calm   4.0 mph 74% 0.00 in meteobridge W/m2
06:54 36.3 °F 28.8 °F 30.05 in Calm   2.0 mph 74% 0.00 in meteobridge W/m2
06:59 36.3 °F 28.8 °F 30.05 in Calm     74% 0.00 in meteobridge W/m2
07:04 36.9 °F 29.3 °F 30.05 in Calm     74% 0.00 in meteobridge W/m2
07:09 36.9 °F 29.3 °F 30.05 in Calm   4.0 mph 74% 0.00 in meteobridge W/m2
07:14 36.9 °F 29.3 °F 30.05 in Calm   3.0 mph 74% 0.00 in meteobridge W/m2
07:19 36.7 °F 29.1 °F 30.06 in Calm     74% 0.00 in meteobridge W/m2
07:24 36.5 °F 28.9 °F 30.06 in Calm   1.0 mph 74% 0.00 in meteobridge W/m2
07:29 36.3 °F 29.1 °F 30.06 in Calm     75% 0.00 in meteobridge W/m2
07:34 36.1 °F 28.9 °F 30.06 in Calm   1.0 mph 75% 0.00 in meteobridge W/m2
07:39 36.1 °F 29.3 °F 30.06 in Calm     76% 0.00 in meteobridge W/m2
07:44 36.1 °F 29.3 °F 30.06 in Calm     76% 0.00 in meteobridge W/m2
07:49 36.1 °F 29.3 °F 30.06 in Calm   1.0 mph 76% 0.00 in meteobridge W/m2
07:54 36.1 °F 29.3 °F 30.06 in Calm   1.0 mph 76% 0.00 in meteobridge W/m2
07:59 36.3 °F 29.5 °F 30.06 in North 2.0 mph 7.0 mph 76% 0.00 in meteobridge W/m2
08:04 36.5 °F 29.7 °F 30.06 in Calm   8.0 mph 76% 0.00 in meteobridge W/m2
08:09 36.7 °F 29.8 °F 30.06 in NNE 2.9 mph 3.0 mph 76% 0.00 in meteobridge W/m2
08:14 36.9 °F 29.3 °F 30.06 in NW 4.9 mph 6.0 mph 74% 0.00 in meteobridge W/m2
08:19 37.6 °F 30.0 °F 30.06 in Calm   3.0 mph 74% 0.00 in meteobridge W/m2
08:24 37.8 °F 30.2 °F 30.07 in NW 2.0 mph 3.0 mph 74% 0.00 in meteobridge W/m2
08:29 37.9 °F 30.0 °F 30.07 in Calm     73% 0.00 in meteobridge W/m2
08:34 38.1 °F 30.2 °F 30.07 in Calm     73% 0.00 in meteobridge W/m2
08:39 38.5 °F 30.2 °F 30.07 in Calm   5.0 mph 72% 0.00 in meteobridge W/m2
08:44 38.8 °F 30.2 °F 30.07 in Calm   3.0 mph 71% 0.00 in meteobridge W/m2
08:49 39.0 °F 30.0 °F 30.07 in Calm   5.0 mph 70% 0.00 in meteobridge W/m2
08:54 39.6 °F 30.6 °F 30.07 in Calm   7.0 mph 70% 0.00 in meteobridge W/m2
08:59 39.7 °F 30.4 °F 30.08 in NNW 6.0 mph 6.0 mph 69% 0.00 in meteobridge W/m2
09:04 40.1 °F 30.4 °F 30.08 in Calm   2.0 mph 68% 0.00 in meteobridge W/m2
09:09 40.5 °F 30.4 °F 30.08 in Calm   7.0 mph 67% 0.00 in meteobridge W/m2
09:14 40.6 °F 30.6 °F 30.08 in Calm   2.0 mph 67% 0.00 in meteobridge W/m2
09:19 41.0 °F 30.6 °F 30.08 in NW 2.9 mph 3.0 mph 66% 0.00 in meteobridge W/m2
09:24 41.2 °F 30.4 °F 30.08 in Calm   5.0 mph 65% 0.00 in meteobridge W/m2
09:29 41.4 °F 30.6 °F 30.08 in NNW 6.9 mph 11.0 mph 65% 0.00 in meteobridge W/m2
09:34 41.7 °F 30.7 °F 30.08 in Calm   2.0 mph 65% 0.00 in meteobridge W/m2
09:39 42.1 °F 30.7 °F 30.09 in Calm   4.0 mph 64% 0.00 in meteobridge W/m2
09:44 42.3 °F 30.9 °F 30.09 in Calm   4.0 mph 64% 0.00 in meteobridge W/m2
09:49 42.6 °F 30.9 °F 30.09 in WNW 4.9 mph 5.0 mph 63% 0.00 in meteobridge W/m2
09:54 43.0 °F 30.9 °F 30.09 in WNW 2.0 mph 8.0 mph 62% 0.00 in meteobridge W/m2
09:59 43.3 °F 30.7 °F 30.09 in ENE 6.0 mph 15.0 mph 61% 0.00 in meteobridge W/m2
10:04 43.5 °F 30.6 °F 30.09 in NNE 2.9 mph 6.0 mph 60% 0.00 in meteobridge W/m2
10:09 43.9 °F 30.6 °F 30.09 in Calm   6.0 mph 59% 0.00 in meteobridge W/m2
10:14 44.1 °F 30.7 °F 30.09 in Calm     59% 0.00 in meteobridge W/m2
10:19 44.4 °F 30.6 °F 30.09 in NNE 6.9 mph 9.0 mph 58% 0.00 in meteobridge W/m2
10:24 44.8 °F 30.9 °F 30.09 in WNW 0.9 mph 4.0 mph 58% 0.00 in meteobridge W/m2
10:29 45.1 °F 31.3 °F 30.09 in Calm   7.0 mph 58% 0.00 in meteobridge W/m2
10:34 45.7 °F 30.9 °F 30.09 in NW 0.9 mph 5.0 mph 56% 0.00 in meteobridge W/m2
10:39 46.2 °F 31.5 °F 30.09 in Calm   8.0 mph 56% 0.00 in meteobridge W/m2
10:44 46.8 °F 31.5 °F 30.09 in Calm   6.0 mph 55% 0.00 in meteobridge W/m2
10:49 47.5 °F 31.6 °F 30.09 in NW 2.9 mph 6.0 mph 54% 0.00 in meteobridge W/m2
10:54 47.7 °F 31.3 °F 30.09 in North 6.0 mph 10.0 mph 53% 0.00 in meteobridge W/m2
10:59 48.0 °F 31.6 °F 30.09 in SW 0.9 mph 3.0 mph 53% 0.00 in meteobridge W/m2
11:04 48.6 °F 31.3 °F 30.10 in NNW 4.0 mph 6.0 mph 51% 0.00 in meteobridge W/m2
11:09 48.7 °F 31.5 °F 30.10 in Calm   1.0 mph 51% 0.00 in meteobridge W/m2
11:14 49.3 °F 31.5 °F 30.09 in Calm   2.0 mph 50% 0.00 in meteobridge W/m2
11:19 49.8 °F 31.5 °F 30.10 in Calm   4.0 mph 49% 0.00 in meteobridge W/m2
11:24 50.5 °F 31.6 °F 30.10 in NNE 2.9 mph 9.0 mph 48% 0.00 in meteobridge W/m2
11:29 51.3 °F 30.6 °F 30.10 in Calm   12.0 mph 45% 0.00 in meteobridge W/m2
11:34 51.6 °F 30.4 °F 30.10 in North 6.9 mph 7.0 mph 44% 0.00 in meteobridge W/m2
11:39 52.3 °F 31.6 °F 30.10 in Calm   1.0 mph 45% 0.00 in meteobridge W/m2
11:44 52.9 °F 32.2 °F 30.10 in Calm   4.0 mph 45% 0.00 in meteobridge W/m2
11:49 53.2 °F 30.7 °F 30.10 in West 0.9 mph 5.0 mph 42% 0.00 in meteobridge W/m2
11:54 53.2 °F 31.3 °F 30.10 in Calm   6.0 mph 43% 0.00 in meteobridge W/m2
11:59 53.4 °F 30.4 °F 30.10 in NW 4.0 mph 10.0 mph 41% 0.00 in meteobridge W/m2
12:04 54.0 °F 30.2 °F 30.10 in Calm   6.0 mph 40% 0.00 in meteobridge W/m2
12:09 54.3 °F 30.6 °F 30.10 in West 2.9 mph 6.0 mph 40% 0.00 in meteobridge W/m2
12:14 54.9 °F 29.7 °F 30.10 in NNW 0.9 mph 9.0 mph 38% 0.00 in meteobridge W/m2
12:19 55.2 °F 30.0 °F 30.10 in NW 2.0 mph 8.0 mph 38% 0.00 in meteobridge W/m2
12:24 55.0 °F 29.8 °F 30.10 in NNW 0.9 mph 4.0 mph 38% 0.00 in meteobridge W/m2
12:29 55.2 °F 30.0 °F 30.09 in West 4.9 mph 7.0 mph 38% 0.00 in meteobridge W/m2
12:34 55.6 °F 31.1 °F 30.10 in Calm     39% 0.00 in meteobridge W/m2
12:39 55.9 °F 31.3 °F 30.09 in NNE 2.9 mph 5.0 mph 39% 0.00 in meteobridge W/m2
12:44 55.9 °F 32.0 °F 30.09 in Calm   6.0 mph 40% 0.00 in meteobridge W/m2
12:49 56.3 °F 32.4 °F 30.09 in Calm   4.0 mph 40% 0.00 in meteobridge W/m2
12:54 56.7 °F 32.0 °F 30.09 in Calm   5.0 mph 39% 0.00 in meteobridge W/m2
12:59 56.5 °F 31.8 °F 30.09 in ENE 2.0 mph 5.0 mph 39% 0.00 in meteobridge W/m2
13:04 56.3 °F 32.4 °F 30.09 in West 0.9 mph 2.0 mph 40% 0.00 in meteobridge W/m2
13:09 56.5 °F 32.4 °F 30.09 in SW 0.9 mph 6.0 mph 40% 0.00 in meteobridge W/m2
13:14 56.8 °F 31.5 °F 30.09 in NNW 4.0 mph 8.0 mph 38% 0.00 in meteobridge W/m2
13:19 56.8 °F 32.2 °F 30.09 in NW 4.0 mph 9.0 mph 39% 0.00 in meteobridge W/m2
13:24 56.5 °F 31.1 °F 30.09 in Calm   8.0 mph 38% 0.00 in meteobridge W/m2
13:29 56.7 °F 31.3 °F 30.09 in Calm   5.0 mph 38% 0.00 in meteobridge W/m2
13:34 56.8 °F 31.5 °F 30.09 in WNW 2.0 mph 11.0 mph 38% 0.00 in meteobridge W/m2
13:39 57.0 °F 30.9 °F 30.09 in Calm   5.0 mph 37% 0.00 in meteobridge W/m2
13:44 57.4 °F 32.0 °F 30.08 in Calm   7.0 mph 38% 0.00 in meteobridge W/m2
13:49 57.7 °F 30.9 °F 30.08 in West 0.9 mph 6.0 mph 36% 0.00 in meteobridge W/m2
13:54 57.9 °F 31.1 °F 30.08 in NNW 2.0 mph 8.0 mph 36% 0.00 in meteobridge W/m2
13:59 58.3 °F 32.2 °F 30.08 in WSW 11.0 mph 11.0 mph 37% 0.00 in meteobridge W/m2
14:04 58.3 °F 32.7 °F 30.08 in WNW 4.9 mph 6.0 mph 38% 0.00 in meteobridge W/m2
14:09 58.5 °F 31.6 °F 30.08 in Calm   3.0 mph 36% 0.00 in meteobridge W/m2
14:14 58.3 °F 32.2 °F 30.08 in WNW 6.9 mph 11.0 mph 37% 0.00 in meteobridge W/m2
14:19 58.3 °F 32.2 °F 30.08 in North 4.0 mph 10.0 mph 37% 0.00 in meteobridge W/m2
14:24 58.3 °F 32.2 °F 30.08 in NNW 2.9 mph 7.0 mph 37% 0.00 in meteobridge W/m2
14:29 58.3 °F 32.2 °F 30.08 in SE 0.9 mph 5.0 mph 37% 0.00 in meteobridge W/m2
14:34 58.3 °F 32.2 °F 30.08 in WNW 4.0 mph 9.0 mph 37% 0.00 in meteobridge W/m2
14:39 58.5 °F 32.4 °F 30.07 in NW 4.9 mph 5.0 mph 37% 0.00 in meteobridge W/m2
14:44 58.6 °F 31.1 °F 30.07 in WNW 4.0 mph 5.0 mph 35% 0.00 in meteobridge W/m2
14:49 58.6 °F 31.1 °F 30.07 in NNE 2.0 mph 13.0 mph 35% 0.00 in meteobridge W/m2
14:54 58.5 °F 30.9 °F 30.06 in WNW 0.9 mph 6.0 mph 35% 0.00 in meteobridge W/m2
14:59 58.6 °F 31.8 °F 30.06 in Calm   3.0 mph 36% 0.00 in meteobridge W/m2
15:04 58.8 °F 32.0 °F 30.06 in NW 0.9 mph 5.0 mph 36% 0.00 in meteobridge W/m2
15:09 59.2 °F 31.5 °F 30.06 in Calm   5.0 mph 35% 0.00 in meteobridge W/m2
15:14 59.4 °F 32.4 °F 30.06 in NW 4.0 mph 7.0 mph 36% 0.00 in meteobridge W/m2
15:19 59.2 °F 31.5 °F 30.05 in West 0.9 mph 10.0 mph 35% 0.00 in meteobridge W/m2
15:24 59.2 °F 32.2 °F 30.06 in NW 2.9 mph 7.0 mph 36% 0.00 in meteobridge W/m2
15:29 59.4 °F 33.8 °F 30.06 in Calm   8.0 mph 38% 0.00 in meteobridge W/m2
15:34 59.5 °F 34.0 °F 30.05 in Calm   1.0 mph 38% 0.00 in meteobridge W/m2
15:39 59.5 °F 34.0 °F 30.05 in SSE 4.0 mph 7.0 mph 38% 0.00 in meteobridge W/m2
15:44 59.5 °F 34.0 °F 30.05 in WNW 2.9 mph 6.0 mph 38% 0.00 in meteobridge W/m2
15:49 59.7 °F 33.4 °F 30.05 in NNW 0.9 mph 4.0 mph 37% 0.00 in meteobridge W/m2
15:54 59.9 °F 33.6 °F 30.05 in WNW 6.9 mph 7.0 mph 37% 0.00 in meteobridge W/m2
15:59 60.1 °F 33.1 °F 30.04 in NNW 2.9 mph 7.0 mph 36% 0.00 in meteobridge W/m2
16:04 60.3 °F 33.3 °F 30.04 in North 2.9 mph 8.0 mph 36% 0.00 in meteobridge W/m2
16:09 60.3 °F 31.8 °F 30.04 in WNW 2.9 mph 10.0 mph 34% 0.00 in meteobridge W/m2
16:14 60.3 °F 32.5 °F 30.04 in Calm   7.0 mph 35% 0.00 in meteobridge W/m2
16:19 60.3 °F 31.8 °F 30.04 in SW 4.0 mph 9.0 mph 34% 0.00 in meteobridge W/m2
16:24 60.3 °F 31.8 °F 30.04 in SSE 0.9 mph 6.0 mph 34% 0.00 in meteobridge W/m2
16:29 60.3 °F 31.8 °F 30.04 in Calm   2.0 mph 34% 0.00 in meteobridge W/m2
16:34 60.4 °F 32.7 °F 30.04 in Calm     35% 0.00 in meteobridge W/m2
16:39 60.8 °F 31.5 °F 30.04 in Calm     33% 0.00 in meteobridge W/m2
16:44 60.8 °F 31.5 °F 30.04 in Calm     33% 0.00 in meteobridge W/m2
16:49 60.6 °F 30.6 °F 30.04 in Calm     32% 0.00 in meteobridge W/m2
16:54 60.6 °F 32.2 °F 30.04 in Calm     34% 0.00 in meteobridge W/m2
16:59 60.8 °F 31.5 °F 30.04 in Calm     33% 0.00 in meteobridge W/m2
17:04 61.0 °F 31.6 °F 30.04 in Calm     33% 0.00 in meteobridge W/m2
17:09 61.2 °F 32.5 °F 30.04 in Calm     34% 0.00 in meteobridge W/m2
17:14 61.2 °F 31.8 °F 30.04 in Calm     33% 0.00 in meteobridge W/m2
17:19 61.2 °F 31.1 °F 30.04 in Calm     32% 0.00 in meteobridge W/m2
17:24 61.2 °F 32.5 °F 30.04 in Calm     34% 0.00 in meteobridge W/m2
17:29 61.2 °F 31.1 °F 30.04 in Calm     32% 0.00 in meteobridge W/m2
17:34 61.2 °F 31.1 °F 30.03 in Calm     32% 0.00 in meteobridge W/m2
17:39 61.2 °F 32.5 °F 30.04 in Calm     34% 0.00 in meteobridge W/m2
17:44 61.3 °F 30.4 °F 30.04 in Calm     31% 0.00 in meteobridge W/m2
17:49 61.5 °F 29.8 °F 30.03 in Calm     30% 0.00 in meteobridge W/m2
17:54 61.3 °F 30.4 °F 30.03 in Calm     31% 0.00 in meteobridge W/m2
17:59 61.3 °F 29.7 °F 30.03 in Calm     30% 0.00 in meteobridge W/m2
18:04 61.3 °F 30.4 °F 30.03 in Calm     31% 0.00 in meteobridge W/m2
18:09 61.2 °F 28.6 °F 30.04 in Calm     29% 0.00 in meteobridge W/m2
18:14 61.2 °F 30.2 °F 30.04 in Calm     31% 0.00 in meteobridge W/m2
18:19 61.0 °F 30.2 °F 30.04 in Calm     31% 0.00 in meteobridge W/m2
18:24 60.8 °F 29.1 °F 30.04 in Calm     30% 0.00 in meteobridge W/m2
18:29 60.8 °F 31.5 °F 30.04 in Calm     33% 0.00 in meteobridge W/m2
18:34 60.4 °F 30.4 °F 30.04 in Calm     32% 0.00 in meteobridge W/m2
18:39 60.4 °F 30.4 °F 30.04 in Calm     32% 0.00 in meteobridge W/m2
18:44 60.3 °F 30.2 °F 30.04 in Calm     32% 0.00 in meteobridge W/m2
18:49 60.3 °F 29.5 °F 30.04 in Calm     31% 0.00 in meteobridge W/m2
18:54 60.1 °F 29.3 °F 30.04 in Calm     31% 0.00 in meteobridge W/m2
18:59 59.9 °F 30.0 °F 30.04 in Calm     32% 0.00 in meteobridge W/m2
19:04 59.7 °F 32.0 °F 30.05 in Calm     35% 0.00 in meteobridge W/m2
19:09 59.5 °F 30.4 °F 30.05 in Calm     33% 0.00 in meteobridge W/m2
19:14 59.2 °F 31.5 °F 30.05 in Calm     35% 0.00 in meteobridge W/m2
19:19 59.0 °F 31.5 °F 30.06 in Calm     35% 0.00 in meteobridge W/m2
19:24 58.6 °F 29.7 °F 30.06 in Calm     33% 0.00 in meteobridge W/m2
19:29 58.5 °F 29.5 °F 30.06 in Calm     33% 0.00 in meteobridge W/m2
19:34 58.5 °F 30.2 °F 30.06 in Calm     34% 0.00 in meteobridge W/m2
19:39 58.5 °F 29.5 °F 30.06 in Calm     33% 0.00 in meteobridge W/m2
19:44 57.9 °F 30.4 °F 30.07 in Calm     35% 0.00 in meteobridge W/m2
19:49 57.7 °F 30.9 °F 30.07 in Calm     36% 0.00 in meteobridge W/m2
19:54 57.6 °F 31.5 °F 30.07 in Calm     37% 0.00 in meteobridge W/m2
19:59 57.4 °F 29.3 °F 30.08 in Calm     34% 0.00 in meteobridge W/m2
20:04 57.0 °F 30.4 °F 30.08 in Calm     36% 0.00 in meteobridge W/m2
20:09 56.8 °F 30.9 °F 30.08 in Calm     37% 0.00 in meteobridge W/m2
20:14 56.5 °F 29.8 °F 30.08 in Calm     36% 0.00 in meteobridge W/m2
20:19 56.1 °F 30.2 °F 30.08 in Calm     37% 0.00 in meteobridge W/m2
20:24 55.8 °F 30.6 °F 30.08 in Calm     38% 0.00 in meteobridge W/m2
20:29 55.4 °F 30.2 °F 30.08 in Calm     38% 0.00 in meteobridge W/m2
20:34 55.0 °F 30.6 °F 30.09 in Calm     39% 0.00 in meteobridge W/m2
20:39 54.5 °F 30.0 °F 30.09 in Calm     39% 0.00 in meteobridge W/m2
20:44 54.3 °F 30.6 °F 30.09 in Calm     40% 0.00 in meteobridge W/m2
20:49 54.1 °F 29.7 °F 30.09 in Calm     39% 0.00 in meteobridge W/m2
20:54 54.0 °F 30.2 °F 30.09 in Calm     40% 0.00 in meteobridge W/m2
20:59 53.8 °F 30.0 °F 30.09 in Calm     40% 0.00 in meteobridge W/m2
21:04 53.4 °F 30.4 °F 30.10 in Calm     41% 0.00 in meteobridge W/m2
21:09 53.2 °F 30.7 °F 30.10 in Calm     42% 0.00 in meteobridge W/m2
21:14 52.9 °F 29.8 °F 30.09 in Calm     41% 0.00 in meteobridge W/m2
21:19 52.5 °F 30.0 °F 30.10 in Calm     42% 0.00 in meteobridge W/m2
21:24 52.2 °F 30.4 °F 30.10 in Calm     43% 0.00 in meteobridge W/m2
21:29 51.6 °F 30.4 °F 30.09 in Calm     44% 0.00 in meteobridge W/m2
21:34 51.3 °F 31.1 °F 30.09 in Calm     46% 0.00 in meteobridge W/m2
21:39 50.5 °F 30.6 °F 30.10 in Calm     46% 0.00 in meteobridge W/m2
21:44 50.2 °F 30.7 °F 30.10 in Calm     47% 0.00 in meteobridge W/m2
21:49 49.6 °F 31.8 °F 30.10 in Calm     50% 0.00 in meteobridge W/m2
21:54 49.1 °F 31.3 °F 30.10 in Calm     50% 0.00 in meteobridge W/m2
21:59 48.6 °F 31.8 °F 30.10 in Calm     52% 0.00 in meteobridge W/m2
22:04 48.0 °F 31.3 °F 30.10 in Calm     52% 0.00 in meteobridge W/m2
22:09 47.5 °F 30.7 °F 30.11 in Calm     52% 0.00 in meteobridge W/m2
22:14 47.1 °F 30.4 °F 30.11 in Calm     52% 0.00 in meteobridge W/m2
22:19 46.8 °F 30.9 °F 30.11 in Calm     54% 0.00 in meteobridge W/m2
22:24 46.2 °F 30.6 °F 30.11 in Calm     54% 0.00 in meteobridge W/m2
22:29 46.0 °F 30.7 °F 30.11 in Calm     55% 0.00 in meteobridge W/m2
22:34 45.7 °F 30.4 °F 30.11 in Calm     55% 0.00 in meteobridge W/m2
22:39 45.3 °F 30.9 °F 30.11 in Calm     57% 0.00 in meteobridge W/m2
22:44 45.1 °F 30.7 °F 30.12 in Calm     57% 0.00 in meteobridge W/m2
22:49 45.0 °F 32.0 °F 30.12 in Calm     60% 0.00 in meteobridge W/m2
22:54 44.8 °F 31.3 °F 30.12 in Calm     59% 0.00 in meteobridge W/m2
22:59 44.6 °F 30.7 °F 30.13 in Calm     58% 0.00 in meteobridge W/m2
23:04 44.2 °F 30.7 °F 30.12 in Calm     59% 0.00 in meteobridge W/m2
23:09 44.1 °F 30.7 °F 30.13 in Calm   1.0 mph 59% 0.00 in meteobridge W/m2
23:14 44.1 °F 30.7 °F 30.13 in Calm     59% 0.00 in meteobridge W/m2
23:19 43.9 °F 30.9 °F 30.12 in North 2.0 mph 2.0 mph 60% 0.00 in meteobridge W/m2
23:24 43.9 °F 30.6 °F 30.13 in Calm   2.0 mph 59% 0.00 in meteobridge W/m2
23:29 43.9 °F 30.0 °F 30.13 in Calm   2.0 mph 58% 0.00 in meteobridge W/m2
23:34 44.1 °F 30.7 °F 30.13 in Calm     59% 0.00 in meteobridge W/m2
23:39 43.9 °F 30.6 °F 30.13 in Calm   1.0 mph 59% 0.00 in meteobridge W/m2
23:44 43.9 °F 30.6 °F 30.13 in Calm   2.0 mph 59% 0.00 in meteobridge W/m2
23:49 43.9 °F 30.6 °F 30.13 in Calm     59% 0.00 in meteobridge W/m2
23:54 43.9 °F 31.3 °F 30.13 in Calm     61% 0.00 in meteobridge W/m2
23:59 43.5 °F 31.3 °F 30.13 in Calm   2.0 mph 62% 0.00 in meteobridge W/m2
EllijayWeather
Compliments of Weather Underground - 2.5 mb